period_start,C,m1,H,J0,J1,J2,J3,J4,J5,JA,JB,JC,JD,JJ,JK,JN,#
2018-02-20 00:00:29,0.06,0.56,0.00,21.76,25.21,28.72,13.95,49.85,1011.74,2034.99,3196.45,2963.77,3356.92,600.22,595.95,8.98,0000 0000 0000 0000 000000
2018-02-20 00:05:30,0.04,0.56,0.00,21.74,25.18,28.65,13.99,49.87,1011.62,2034.99,3195.04,2963.01,3355.88,600.29,595.88,9.03,0000 0000 0000 0000 000000
2018-02-20 00:10:31,0.07,0.56,0.00,21.74,25.16,28.63,14.02,49.70,1011.44,2035.01,3193.61,2962.22,3354.90,600.04,595.65,9.08,0000 0000 0000 0000 000000
2018-02-20 00:15:33,0.06,0.56,0.00,21.71,25.14,28.63,14.08,49.83,1011.28,2035.01,3192.38,2961.45,3353.83,600.07,595.60,9.13,0000 0000 0000 0000 000000
2018-02-20 00:20:34,0.08,0.57,0.00,21.68,25.12,28.60,13.98,49.87,1011.15,2035.10,3190.85,2960.51,3352.55,600.30,595.70,9.18,0000 0000 0000 0000 000000
2018-02-20 00:25:36,0.08,0.57,0.00,21.67,25.10,28.56,13.91,49.97,1010.82,2035.38,3189.48,2959.67,3351.44,599.65,594.97,9.23,0000 0000 0000 0000 000000
2018-02-20 00:30:37,0.08,0.58,0.00,21.65,25.08,28.44,13.96,50.11,1010.78,2035.57,3188.08,2958.85,3350.23,599.98,595.31,9.28,0000 0000 0000 0000 000000
2018-02-20 00:35:38,0.08,0.58,0.00,21.63,25.06,28.49,13.97,49.83,1010.78,2035.94,3186.79,2958.01,3349.27,600.08,595.45,9.33,0000 0000 0000 0000 000000
2018-02-20 00:40:39,0.07,0.59,0.00,21.61,25.03,28.49,13.95,50.15,1010.60,2035.98,3185.51,2957.14,3348.08,600.00,595.27,9.38,0000 0000 0000 0000 000000
2018-02-20 00:45:41,0.06,0.59,0.00,21.58,25.01,28.45,13.98,50.08,1010.31,2035.99,3184.11,2956.28,3346.95,600.07,595.25,9.43,0000 0000 0000 0000 000000
2018-02-20 00:50:42,0.07,0.59,0.00,21.57,25.00,28.41,13.99,50.17,1010.27,2035.99,3182.64,2955.40,3345.65,599.95,595.30,9.48,0000 0000 0000 0000 000000
2018-02-20 00:55:43,0.07,0.60,0.00,21.54,24.97,28.38,13.98,50.17,1010.16,2035.99,3181.07,2954.27,3344.36,599.84,595.15,9.53,0000 0000 0000 0000 000000
2018-02-20 01:00:44,0.07,0.60,0.00,21.50,24.96,28.29,13.98,50.36,1009.81,2036.00,3179.51,2953.30,3343.07,600.02,595.12,9.58,0000 0000 0000 0000 000000
2018-02-20 01:05:46,0.09,0.60,0.00,21.48,24.93,28.24,14.02,50.38,1009.77,2036.04,3177.84,2951.99,3341.53,600.12,595.17,9.63,0000 0000 0000 0000 000000
2018-02-20 01:10:47,0.10,0.61,0.00,21.46,24.91,28.23,14.00,50.47,1009.70,2036.13,3176.05,2950.82,3339.95,599.92,595.07,9.68,0000 0000 0000 0000 000000
2018-02-20 01:15:49,0.11,0.61,0.00,21.41,24.88,28.22,14.09,50.42,1009.77,2036.41,3174.34,2949.58,3338.30,600.49,595.62,9.73,0000 0000 0000 0000 000000
2018-02-20 01:20:50,0.13,0.62,0.00,21.39,24.86,28.28,13.98,50.35,1009.77,2036.78,3172.61,2948.30,3336.59,600.02,595.35,9.78,0000 0000 0000 0000 000000
2018-02-20 01:25:51,0.08,0.63,0.00,21.34,24.83,28.30,14.04,50.48,1009.60,2036.97,3171.01,2947.12,3335.04,600.02,595.22,9.83,0000 0000 0000 0000 000000
2018-02-20 01:30:53,0.06,0.63,0.00,21.32,24.81,28.29,14.04,50.45,1009.31,2036.99,3169.77,2946.18,3333.90,599.82,594.90,9.88,0000 0000 0000 0000 000000
2018-02-20 01:35:54,0.07,0.63,0.00,21.31,24.78,28.26,14.08,50.59,1009.26,2036.99,3168.38,2945.40,3332.72,600.00,595.26,9.93,0000 0000 0000 0000 000000
2018-02-20 01:40:55,0.08,0.64,0.00,21.26,24.76,28.22,13.84,50.36,1009.07,2036.99,3166.62,2944.20,3331.17,599.68,594.80,9.98,0000 0000 0000 0000 000000
2018-02-20 01:45:57,0.08,0.64,0.00,21.21,24.73,28.19,13.97,50.30,1008.91,2036.99,3164.95,2943.19,3329.71,599.81,594.96,10.03,0000 0000 0000 0000 000000
2018-02-20 01:50:58,0.07,0.65,0.00,21.19,24.71,28.15,13.99,50.22,1008.80,2037.02,3163.38,2942.05,3328.33,599.76,594.96,10.08,0000 0000 0000 0000 000000
2018-02-20 01:55:59,0.09,0.65,0.00,21.17,24.68,28.12,13.94,50.27,1008.72,2037.07,3161.75,2940.97,3326.94,599.80,594.98,10.13,0000 0000 0000 0000 000000
2018-02-20 02:01:01,0.11,0.66,0.00,21.14,24.65,28.08,14.00,50.29,1008.67,2037.32,3160.17,2939.93,3325.48,599.90,595.02,10.18,0000 0000 0000 0000 000000
2018-02-20 02:06:02,0.13,0.66,0.00,21.11,24.62,28.03,14.00,50.26,1008.39,2037.82,3158.53,2938.78,3323.96,600.14,595.12,10.23,0000 0000 0000 0000 000000
2018-02-20 02:11:04,0.10,0.67,0.00,21.08,24.59,27.97,14.03,50.38,1008.32,2037.97,3156.58,2937.54,3322.22,600.13,595.14,10.28,0000 0000 0000 0000 000000
2018-02-20 02:16:05,0.08,0.67,0.00,21.07,24.56,27.94,14.02,50.50,1008.15,2037.99,3154.81,2936.24,3320.52,600.25,595.15,10.33,0000 0000 0000 0000 000000
2018-02-20 02:21:06,0.10,0.68,0.00,21.03,24.53,27.92,13.99,50.39,1007.99,2037.99,3152.99,2934.88,3318.89,600.03,594.96,10.38,0000 0000 0000 0000 000000
2018-02-20 02:26:07,0.08,0.68,0.00,21.00,24.50,27.89,13.99,50.60,1007.85,2038.00,3151.29,2933.64,3317.26,600.04,594.89,10.43,0000 0000 0000 0000 000000
2018-02-20 02:31:08,0.09,0.69,0.00,20.97,24.47,27.87,13.99,50.58,1007.89,2038.02,3149.57,2932.34,3315.69,600.02,595.04,10.49,0000 0000 0000 0000 000000
2018-02-20 02:36:09,0.07,0.69,0.00,20.94,24.44,27.85,14.02,50.48,1007.96,2038.05,3147.99,2931.18,3314.27,599.90,594.98,10.54,0000 0000 0000 0000 000000
2018-02-20 02:41:11,0.11,0.70,0.00,20.89,24.41,27.82,14.00,50.48,1007.98,2038.30,3146.39,2930.09,3312.89,600.14,595.34,10.59,0000 0000 0000 0000 000000
2018-02-20 02:46:12,0.13,0.70,0.00,20.87,24.38,27.76,14.03,50.42,1007.89,2038.79,3144.71,2928.96,3311.37,599.77,594.84,10.64,0000 0000 0000 0000 000000
2018-02-20 02:51:14,0.10,0.71,0.00,20.83,24.35,27.69,13.99,50.41,1007.83,2038.98,3142.87,2927.73,3309.63,599.98,595.12,10.69,0000 0000 0000 0000 000000
2018-02-20 02:56:15,0.09,0.71,0.00,20.82,24.32,27.62,13.97,50.49,1007.76,2038.99,3141.13,2926.58,3308.02,599.90,595.12,10.74,0000 0000 0000 0000 000000
2018-02-20 03:01:17,0.08,0.72,0.00,20.80,24.29,27.60,13.97,50.42,1007.48,2038.99,3139.42,2925.31,3306.37,600.17,595.28,10.79,0000 0000 0000 0000 000000
2018-02-20 03:06:18,0.09,0.72,0.00,20.79,24.26,27.56,14.08,50.54,1007.35,2039.00,3137.67,2923.95,3304.70,600.03,595.00,10.84,0000 0000 0000 0000 000000
2018-02-20 03:11:19,0.11,0.73,0.00,20.77,24.23,27.53,13.97,50.39,1007.32,2039.03,3135.85,2922.59,3302.92,599.92,594.92,10.89,0000 0000 0000 0000 000000
2018-02-20 03:16:20,0.10,0.73,0.00,20.77,24.19,27.50,14.22,50.44,1007.27,2039.28,3134.57,2921.42,3301.55,600.31,595.35,10.94,0000 0000 0000 0000 000000
2018-02-20 03:21:22,0.10,0.74,0.00,20.73,24.16,27.48,13.90,50.41,1007.20,2039.58,3133.00,2920.35,3300.23,599.71,594.78,10.99,0000 0000 0000 0000 000000
2018-02-20 03:26:23,0.10,0.74,0.00,20.70,24.13,27.41,13.99,50.33,1007.11,2039.92,3131.52,2919.41,3298.88,600.08,595.15,11.04,0000 0000 0000 0000 000000
2018-02-20 03:31:24,0.08,0.75,0.00,20.69,24.10,27.38,14.03,50.38,1006.90,2039.98,3129.90,2918.38,3297.51,600.45,595.37,11.09,0000 0000 0000 0000 000000
2018-02-20 03:36:25,0.06,0.75,0.00,20.65,24.07,27.35,13.97,50.51,1006.83,2039.99,3128.46,2917.36,3296.32,600.21,595.23,11.14,0000 0000 0000 0000 000000
2018-02-20 03:41:27,0.08,0.76,0.00,20.63,24.04,27.35,14.03,50.57,1006.71,2039.99,3126.94,2916.32,3294.89,600.17,595.11,11.19,0000 0000 0000 0000 000000
2018-02-20 03:46:28,0.08,0.76,0.00,20.62,24.01,27.31,13.95,50.63,1006.57,2040.01,3125.42,2915.21,3293.56,599.84,594.76,11.24,0000 0000 0000 0000 000000
2018-02-20 03:51:29,0.10,0.76,0.00,20.62,23.98,27.26,14.01,50.57,1006.40,2040.12,3123.83,2913.99,3292.12,600.27,595.10,11.29,0000 0000 0000 0000 000000
2018-02-20 03:56:30,0.14,0.77,0.00,20.58,23.95,27.21,13.98,50.36,1006.39,2040.50,3121.88,2912.61,3290.25,599.99,594.88,11.34,0000 0000 0000 0000 000000
2018-02-20 04:01:31,0.10,0.78,0.00,20.57,23.92,27.20,14.01,50.48,1006.43,2040.90,3120.43,2911.62,3288.87,600.29,595.25,11.39,0000 0000 0000 0000 000000
2018-02-20 04:06:32,0.09,0.78,0.00,20.55,23.90,27.18,13.96,50.47,1006.41,2040.93,3118.74,2910.33,3287.21,599.74,594.75,11.44,0000 0000 0000 0000 000000
2018-02-20 04:11:34,0.08,0.79,0.00,20.56,23.87,27.15,14.04,50.45,1006.39,2040.98,3117.16,2909.08,3285.73,600.07,595.10,11.49,0000 0000 0000 0000 000000
2018-02-20 04:16:35,0.07,0.79,0.00,20.53,23.85,27.12,13.93,50.48,1006.37,2040.99,3115.57,2908.02,3284.33,599.83,594.84,11.54,0000 0000 0000 0000 000000
2018-02-20 04:21:37,0.10,0.79,0.00,20.50,23.82,27.13,13.95,50.41,1006.26,2040.99,3113.89,2906.78,3282.85,599.68,594.78,11.59,0000 0000 0000 0000 000000
2018-02-20 04:26:37,0.10,0.80,0.00,20.49,23.80,27.09,13.95,50.67,1005.80,2041.00,3112.10,2905.38,3281.09,599.87,594.59,11.64,0000 0000 0000 0000 000000
2018-02-20 04:31:39,0.09,0.81,0.00,20.48,23.77,27.07,13.96,50.92,1005.33,2041.02,3110.30,2903.88,3279.35,599.93,594.37,11.69,0000 0000 0000 0000 000000
2018-02-20 04:36:40,0.13,0.81,0.00,20.48,23.74,27.07,13.99,51.12,1004.90,2041.17,3108.38,2902.47,3277.44,600.17,594.41,11.74,0000 0000 0000 0000 000000
2018-02-20 04:41:41,0.16,0.82,0.00,20.47,23.71,27.06,13.96,51.07,1004.66,2041.54,3106.14,2900.71,3275.24,600.02,594.04,11.79,0000 0000 0000 0000 000000
2018-02-20 04:46:43,0.22,0.83,0.00,20.45,23.69,27.07,13.93,51.41,1004.39,2041.85,3103.25,2897.92,3271.99,599.54,593.54,11.84,0000 0000 0000 0000 000000
2018-02-20 04:51:44,0.28,0.84,0.00,20.42,23.66,27.03,13.97,51.31,1004.33,2041.98,3099.44,2893.82,3267.36,600.18,594.18,11.89,0000 0000 0000 0000 000000
2018-02-20 04:56:45,0.16,0.85,0.00,20.39,23.63,27.02,13.99,51.21,1004.39,2041.99,3096.63,2890.79,3263.97,600.14,594.32,11.94,0000 0000 0000 0000 000000
2018-02-20 05:01:47,0.09,0.86,0.00,20.36,23.61,27.03,14.01,51.09,1004.41,2041.99,3094.80,2889.26,3262.18,600.36,594.43,11.99,0000 0000 0000 0000 000000
2018-02-20 05:06:48,0.14,0.86,0.00,20.32,23.58,27.02,13.97,51.25,1004.39,2041.99,3092.83,2887.50,3259.97,599.78,594.01,12.04,0000 0000 0000 0000 000000
2018-02-20 05:11:50,0.13,0.87,0.00,20.30,23.56,27.03,13.95,51.42,1004.41,2042.01,3090.50,2885.17,3257.25,600.00,594.30,12.09,0000 0000 0000 0000 000000
2018-02-20 05:16:51,0.10,0.88,0.00,20.28,23.53,27.00,13.97,51.08,1004.48,2042.02,3088.74,2883.74,3255.53,599.75,594.15,12.14,0000 0000 0000 0000 000000
2018-02-20 05:21:52,0.12,0.88,0.00,20.25,23.50,26.98,14.00,51.11,1004.67,2042.06,3086.69,2882.11,3253.62,599.99,594.55,12.19,0000 0000 0000 0000 000000
2018-02-20 05:26:53,0.17,0.89,0.00,20.23,23.47,26.89,13.97,51.04,1004.90,2042.24,3084.32,2880.03,3251.18,599.69,594.41,12.24,0000 0000 0000 0000 000000
2018-02-20 05:31:55,0.15,0.90,0.00,20.19,23.45,26.83,13.92,51.08,1005.23,2042.66,3082.23,2878.27,3248.81,599.70,594.77,12.29,0000 0000 0000 0000 000000
2018-02-20 05:36:56,0.13,0.91,0.00,20.16,23.41,26.79,14.00,50.88,1005.39,2042.94,3080.22,2876.53,3246.72,600.29,595.36,12.34,0000 0000 0000 0000 000000
2018-02-20 05:41:57,0.11,0.91,0.00,20.15,23.38,26.73,13.99,50.62,1005.63,2042.98,3078.30,2874.96,3244.83,600.08,595.38,12.39,0000 0000 0000 0000 000000
2018-02-20 05:46:58,0.10,0.92,0.00,20.10,23.36,26.71,14.04,50.62,1005.79,2042.99,3076.51,2873.59,3243.21,600.10,595.69,12.44,0000 0000 0000 0000 000000
2018-02-20 05:51:59,0.08,0.92,0.00,20.09,23.33,26.66,13.98,50.49,1005.71,2042.99,3074.83,2872.47,3241.63,600.32,595.78,12.49,0000 0000 0000 0000 000000
2018-02-20 05:57:01,0.07,0.93,0.00,20.09,23.29,26.64,13.97,50.50,1005.62,2043.00,3073.29,2871.38,3240.19,600.03,595.39,12.54,0000 0000 0000 0000 000000
2018-02-20 06:02:02,0.08,0.93,0.00,20.05,23.26,26.59,13.99,50.51,1005.49,2043.02,3071.69,2870.20,3238.82,600.18,595.63,12.59,0000 0000 0000 0000 000000
2018-02-20 06:07:03,0.09,0.94,0.00,20.02,23.24,26.57,14.00,50.57,1005.40,2043.20,3070.33,2869.30,3237.65,599.82,595.28,12.64,0000 0000 0000 0000 000000
2018-02-20 06:12:05,0.13,0.94,0.00,20.02,23.21,26.52,13.96,50.53,1005.38,2043.76,3068.74,2868.12,3236.12,600.06,595.50,12.69,0000 0000 0000 0000 000000
2018-02-20 06:17:06,0.10,0.95,0.00,20.03,23.18,26.50,13.95,50.51,1005.16,2043.93,3067.05,2866.82,3234.57,599.86,595.29,12.74,0000 0000 0000 0000 000000
2018-02-20 06:22:07,0.10,0.95,0.00,20.02,23.16,26.50,13.98,50.45,1004.95,2043.96,3065.37,2865.48,3233.02,599.91,595.17,12.79,0000 0000 0000 0000 000000
2018-02-20 06:27:09,0.08,0.96,0.00,20.03,23.13,26.47,14.03,50.50,1004.97,2043.98,3063.75,2864.33,3231.58,600.08,595.26,12.85,0000 0000 0000 0000 000000
2018-02-20 06:32:10,0.08,0.96,0.00,20.03,23.11,26.43,13.98,50.48,1004.90,2043.99,3062.23,2863.33,3230.10,600.15,595.23,12.90,0000 0000 0000 0000 000000
2018-02-20 06:37:11,0.08,0.97,0.00,20.02,23.09,26.44,13.96,50.63,1004.90,2043.99,3060.53,2862.00,3228.58,599.43,594.64,12.95,0000 0000 0000 0000 000000
2018-02-20 06:42:12,0.07,0.97,0.00,20.02,23.07,26.41,13.94,50.62,1004.89,2044.01,3059.02,2860.96,3227.31,599.96,594.99,13.00,0000 0000 0000 0000 000000
2018-02-20 06:47:14,0.09,0.98,0.00,20.05,23.04,26.43,14.04,50.59,1004.89,2044.01,3057.46,2859.76,3225.83,600.43,595.51,13.05,0000 0000 0000 0000 000000
2018-02-20 06:52:15,0.05,0.98,0.00,20.06,23.02,26.43,13.95,50.59,1004.91,2044.03,3056.06,2858.92,3224.65,600.00,595.08,13.10,0000 0000 0000 0000 000000
2018-02-20 06:57:16,0.09,0.98,0.00,20.02,23.00,26.41,14.00,50.60,1005.09,2044.06,3054.72,2857.91,3223.58,600.13,595.40,13.15,0000 0000 0000 0000 000000
2018-02-20 07:02:17,0.10,0.99,0.00,20.03,22.98,26.37,13.98,50.59,1005.33,2044.39,3053.47,2857.01,3222.38,600.11,595.61,13.20,0000 0000 0000 0000 000000
2018-02-20 07:07:18,0.08,0.99,0.00,20.01,22.97,26.38,14.02,50.77,1005.19,2044.76,3052.12,2856.11,3221.23,599.87,595.15,13.25,0000 0000 0000 0000 000000
2018-02-20 07:12:19,0.09,1.00,0.00,20.02,22.94,26.38,14.00,50.75,1005.07,2044.86,3050.68,2855.10,3219.88,600.06,595.26,13.30,0000 0000 0000 0000 000000
2018-02-20 07:17:21,0.08,1.00,0.00,20.01,22.94,26.38,13.99,50.70,1005.30,2044.97,3049.40,2854.09,3218.65,599.72,595.15,13.35,0000 0000 0000 0000 000000
2018-02-20 07:22:22,0.07,1.01,0.00,19.98,22.92,26.40,14.02,50.67,1005.38,2044.97,3048.07,2853.25,3217.55,599.86,595.37,13.40,0000 0000 0000 0000 000000
2018-02-20 07:27:24,0.07,1.01,0.00,19.97,22.92,26.38,13.94,50.65,1005.38,2044.97,3046.62,2852.42,3216.40,599.95,595.43,13.45,0000 0000 0000 0000 000000
2018-02-20 07:32:25,0.06,1.01,0.00,19.96,22.90,26.40,13.99,50.63,1005.38,2044.97,3045.28,2851.40,3215.13,599.98,595.54,13.50,0000 0000 0000 0000 000000
2018-02-20 07:37:26,0.06,1.02,0.00,19.94,22.89,26.39,14.01,50.64,1005.34,2044.99,3043.96,2850.63,3214.07,600.23,595.74,13.55,0000 0000 0000 0000 000000
2018-02-20 07:42:27,0.08,1.02,0.00,19.94,22.89,26.36,13.91,50.63,1004.91,2044.99,3042.62,2849.65,3212.85,599.62,594.92,13.60,0000 0000 0000 0000 000000
2018-02-20 07:47:28,0.08,1.02,0.00,19.93,22.87,26.37,14.03,50.84,1004.88,2044.99,3041.10,2848.61,3211.54,599.92,595.27,13.65,0000 0000 0000 0000 000000
2018-02-20 07:52:30,0.09,1.03,0.00,19.92,22.87,26.40,13.99,50.89,1004.64,2044.99,3039.45,2847.23,3209.78,600.19,595.40,13.70,0000 0000 0000 0000 000000
2018-02-20 07:57:31,0.08,1.03,0.00,19.89,22.87,26.36,14.00,50.88,1004.40,2044.99,3037.78,2845.98,3208.30,599.90,595.00,13.75,0000 0000 0000 0000 000000
2018-02-20 08:02:32,0.07,1.04,0.00,19.88,22.85,26.37,13.99,51.06,1004.25,2044.99,3036.42,2844.89,3206.97,600.34,595.43,13.80,0000 0000 0000 0000 000000
2018-02-20 08:07:33,0.08,1.04,0.00,19.87,22.84,26.39,13.98,50.95,1003.95,2045.00,3034.90,2843.77,3205.59,599.70,594.69,13.85,0000 0000 0000 0000 000000
2018-02-20 08:12:35,0.09,1.05,0.00,19.86,22.84,26.38,14.04,51.00,1003.92,2045.00,3033.36,2842.52,3204.06,600.16,595.06,13.90,0000 0000 0000 0000 000000
2018-02-20 08:17:36,0.09,1.05,0.00,19.82,22.82,26.39,14.01,50.96,1003.92,2045.00,3031.53,2841.19,3202.34,600.26,595.18,13.95,0000 0000 0000 0000 000000
2018-02-20 08:22:37,0.11,1.06,0.00,19.82,22.82,26.35,14.03,50.95,1003.92,2045.00,3029.65,2839.63,3200.50,600.14,595.16,14.00,0000 0000 0000 0000 000000
2018-02-20 08:27:39,0.10,1.06,0.00,19.83,22.80,26.36,13.97,50.98,1003.89,2045.00,3027.68,2838.04,3198.45,599.96,594.83,14.05,0000 0000 0000 0000 000000
2018-02-20 08:32:41,0.12,1.07,0.00,19.82,22.78,26.32,13.98,51.02,1003.92,2045.01,3025.97,2836.41,3196.55,600.01,595.00,14.10,0000 0000 0000 0000 000000
2018-02-20 08:37:42,0.12,1.07,0.00,19.80,22.76,26.27,14.03,51.12,1003.85,2045.03,3024.13,2834.67,3194.51,600.30,595.27,14.15,0000 0000 0000 0000 000000
2018-02-20 08:42:43,0.11,1.08,0.00,19.76,22.74,26.25,13.92,51.08,1003.67,2045.13,3022.27,2833.20,3192.71,599.75,594.68,14.20,0000 0000 0000 0000 000000
2018-02-20 08:47:44,0.11,1.09,0.00,19.73,22.72,26.21,13.94,50.95,1003.47,2045.22,3020.63,2831.82,3191.12,599.95,594.85,14.25,0000 0000 0000 0000 000000
2018-02-20 08:52:46,0.13,1.09,0.00,19.70,22.69,26.14,14.03,51.13,1003.43,2045.45,3018.87,2830.27,3189.31,600.31,595.31,14.30,0000 0000 0000 0000 000000
2018-02-20 08:57:47,0.13,1.10,0.00,19.67,22.67,26.13,13.95,50.96,1003.43,2045.77,3017.03,2828.81,3187.66,599.92,594.86,14.35,0000 0000 0000 0000 000000
2018-02-20 09:02:49,0.11,1.11,0.00,19.66,22.64,26.09,14.00,50.83,1003.43,2045.94,3015.11,2827.24,3185.86,600.01,595.12,14.40,0000 0000 0000 0000 000000
2018-02-20 09:07:50,0.13,1.11,0.00,19.64,22.62,26.06,13.97,50.80,1003.39,2045.97,3013.09,2825.54,3183.90,600.01,595.05,14.45,0000 0000 0000 0000 000000
2018-02-20 09:12:51,0.10,1.12,0.00,19.61,22.59,26.04,14.02,50.95,1003.16,2045.98,3011.19,2823.89,3181.95,599.78,594.70,14.50,0000 0000 0000 0000 000000
2018-02-20 09:17:53,0.11,1.12,0.00,19.57,22.56,25.97,13.93,51.08,1002.96,2045.99,3009.42,2822.50,3180.22,599.75,594.81,14.55,0000 0000 0000 0000 000000
2018-02-20 09:22:54,0.12,1.13,0.00,19.53,22.53,25.97,13.96,51.02,1003.00,2045.99,3007.53,2820.57,3178.16,599.69,594.69,14.60,0000 0000 0000 0000 000000
2018-02-20 09:27:55,0.09,1.14,0.00,19.50,22.50,25.93,13.98,50.89,1003.00,2046.01,3005.82,2819.26,3176.54,600.00,595.09,14.65,0000 0000 0000 0000 000000
2018-02-20 09:32:56,0.10,1.14,0.00,19.46,22.47,25.88,14.04,50.89,1002.96,2046.03,3004.11,2817.92,3174.86,600.12,595.31,14.70,0000 0000 0000 0000 000000
2018-02-20 09:37:57,0.13,1.14,0.00,19.44,22.44,25.83,14.03,50.90,1002.96,2046.12,3002.24,2816.42,3172.87,600.14,595.29,14.75,0000 0000 0000 0000 000000
2018-02-20 09:42:59,0.16,1.15,0.00,19.42,22.41,25.81,13.95,50.83,1002.94,2046.57,3000.33,2814.78,3170.95,599.97,595.27,14.80,0000 0000 0000 0000 000000
2018-02-20 09:48:00,0.11,1.16,0.00,19.39,22.38,25.78,13.97,50.93,1002.73,2046.92,2998.59,2813.62,3169.47,599.78,594.93,14.85,0000 0000 0000 0000 000000
2018-02-20 09:53:01,0.12,1.17,0.00,19.35,22.35,25.75,13.98,50.93,1002.47,2046.98,2996.57,2812.14,3167.53,600.10,595.18,14.90,0000 0000 0000 0000 000000
2018-02-20 09:58:03,0.12,1.17,0.00,19.31,22.32,25.72,13.98,51.14,1002.45,2046.99,2994.51,2810.40,3165.45,599.70,594.85,14.95,0000 0000 0000 0000 000000
2018-02-20 10:03:04,0.15,1.18,0.00,19.27,22.28,25.69,13.96,51.17,1002.37,2046.99,2992.31,2808.24,3162.96,599.72,594.96,15.00,0000 0000 0000 0000 000000
2018-02-20 10:08:05,0.17,1.19,0.00,19.23,22.25,25.67,14.03,51.14,1002.16,2046.99,2989.93,2805.79,3160.35,600.11,595.23,15.05,0000 0000 0000 0000 000000
2018-02-20 10:13:07,0.19,1.20,0.00,19.20,22.22,25.63,13.93,51.14,1002.07,2046.99,2986.92,2802.85,3157.00,599.75,594.90,15.10,0000 0000 0000 0000 000000
2018-02-20 10:18:07,0.13,1.21,0.00,19.17,22.19,25.62,13.99,51.31,1001.99,2046.99,2984.83,2800.96,3154.78,599.89,594.87,15.15,0000 0000 0000 0000 000000
2018-02-20 10:23:09,0.18,1.21,0.00,19.13,22.16,25.57,13.94,51.25,1001.97,2047.00,2982.18,2798.57,3151.91,599.78,595.08,15.20,0000 0000 0000 0000 000000
2018-02-20 10:28:09,0.13,1.22,0.00,19.07,22.13,25.53,13.99,51.27,1001.95,2047.02,2980.00,2796.70,3149.57,600.19,595.51,15.25,0000 0000 0000 0000 000000
2018-02-20 10:33:11,0.15,1.23,0.00,19.04,22.09,25.53,13.98,51.38,1001.93,2047.12,2977.82,2794.63,3147.22,599.82,595.21,15.31,0000 0000 0000 0000 000000
2018-02-20 10:38:12,0.18,1.24,0.00,19.00,22.06,25.50,14.06,51.38,1001.96,2047.60,2975.93,2793.04,3145.32,600.28,595.76,15.36,0000 0000 0000 0000 000000
2018-02-20 10:43:14,0.13,1.25,0.00,18.95,22.02,25.46,14.00,51.38,1001.90,2047.94,2974.04,2791.36,3143.30,599.97,595.40,15.41,0000 0000 0000 0000 000000
2018-02-20 10:48:15,0.09,1.25,0.00,18.90,21.99,25.40,14.04,51.40,1001.90,2047.98,2972.20,2790.02,3141.40,600.11,595.70,15.46,0000 0000 0000 0000 000000
2018-02-20 10:53:16,0.08,1.25,0.00,18.88,21.95,25.36,13.99,51.35,1001.85,2047.99,2970.60,2789.42,3139.78,599.95,595.61,15.51,0000 0000 0000 0000 000000
2018-02-20 10:58:17,0.11,1.26,0.00,18.86,21.92,25.34,14.00,51.33,1001.59,2048.01,2968.82,2787.86,3138.18,599.85,595.36,15.56,0000 0000 0000 0000 000000
2018-02-20 11:03:19,0.10,1.27,0.00,18.82,21.88,25.30,14.03,51.38,1001.51,2048.07,2967.10,2786.40,3136.48,599.87,595.44,15.61,0000 0000 0000 0000 000000
2018-02-20 11:08:20,0.13,1.27,0.00,18.79,21.85,25.26,14.01,51.33,1001.48,2048.49,2965.59,2785.35,3135.15,600.09,595.72,15.66,0000 0000 0000 0000 000000
2018-02-20 11:13:21,0.09,1.28,0.00,18.76,21.81,25.20,14.06,51.48,1001.48,2048.82,2964.11,2784.45,3134.12,599.95,595.71,15.71,0000 0000 0000 0000 000000
2018-02-20 11:18:23,0.10,1.28,0.00,18.72,21.78,25.16,14.04,51.58,1001.48,2048.98,2962.50,2783.29,3132.56,599.92,595.74,15.76,0000 0000 0000 0000 000000
2018-02-20 11:23:24,0.07,1.29,0.00,18.68,21.75,25.15,13.98,51.49,1001.48,2048.99,2960.90,2782.06,3131.22,599.75,595.56,15.81,0000 0000 0000 0000 000000
2018-02-20 11:28:26,0.08,1.29,0.00,18.64,21.71,25.12,14.05,51.41,1001.48,2048.99,2959.49,2781.01,3129.85,599.97,595.90,15.86,0000 0000 0000 0000 000000
2018-02-20 11:33:27,0.07,1.30,0.00,18.62,21.68,25.08,13.98,51.33,1001.49,2049.02,2958.05,2780.10,3128.74,599.63,595.67,15.91,0000 0000 0000 0000 000000
2018-02-20 11:38:28,0.08,1.30,0.00,18.59,21.64,25.04,14.05,51.30,1001.51,2049.07,2956.73,2779.39,3127.69,600.29,596.25,15.96,0000 0000 0000 0000 000000
2018-02-20 11:43:29,0.13,1.30,0.00,18.58,21.60,24.92,14.01,51.33,1001.48,2049.60,2955.47,2778.57,3126.58,600.09,596.17,16.01,0000 0000 0000 0000 000000
2018-02-20 11:48:31,0.07,1.31,0.00,18.54,21.57,24.86,14.03,51.48,1001.48,2049.76,2953.92,2777.59,3125.42,600.22,596.35,16.06,0000 0000 0000 0000 000000
2018-02-20 11:53:32,0.09,1.31,0.00,18.50,21.53,24.83,14.01,51.55,1001.47,2049.95,2952.55,2776.67,3124.23,600.02,596.21,16.11,0000 0000 0000 0000 000000
2018-02-20 11:58:33,-0.00,1.32,0.00,18.48,21.49,24.88,14.02,51.61,1001.41,2049.99,2951.61,2776.35,3123.55,600.20,596.41,16.16,0000 0000 0000 0000 000000
2018-02-20 12:03:34,0.07,1.32,0.00,18.45,21.46,24.83,14.05,51.50,1001.31,2049.99,2950.77,2775.96,3123.11,600.25,596.47,16.21,0000 0000 0000 0000 000000
2018-02-20 12:08:36,0.07,1.32,0.00,18.43,21.42,24.83,14.03,51.56,1001.17,2050.00,2949.43,2775.05,3121.91,599.94,596.12,16.26,0000 0000 0000 0000 000000
2018-02-20 12:13:37,0.08,1.33,0.00,18.38,21.38,24.79,14.01,51.56,1000.99,2050.03,2947.99,2774.15,3120.74,600.12,596.36,16.31,0000 0000 0000 0000 000000
2018-02-20 12:18:38,0.10,1.33,0.00,18.35,21.35,24.75,14.04,51.59,1000.99,2050.28,2946.66,2773.32,3119.67,600.28,596.43,16.36,0000 0000 0000 0000 000000
2018-02-20 12:23:39,0.13,1.34,0.00,18.33,21.31,24.70,13.98,51.52,1001.01,2050.85,2945.03,2772.39,3118.43,599.74,596.03,16.41,0000 0000 0000 0000 000000
2018-02-20 12:28:41,0.08,1.34,0.00,18.31,21.28,24.69,14.00,51.57,1001.06,2050.97,2943.52,2771.27,3116.99,600.16,596.52,16.46,0000 0000 0000 0000 000000
2018-02-20 12:33:42,0.08,1.35,0.00,18.28,21.24,24.62,14.08,51.58,1001.17,2050.99,2941.92,2770.16,3115.68,600.11,596.59,16.51,0000 0000 0000 0000 000000
2018-02-20 12:38:44,0.09,1.35,0.00,18.24,21.21,24.59,14.04,51.60,1001.04,2050.99,2940.09,2769.02,3114.03,600.12,596.59,16.56,0000 0000 0000 0000 000000
2018-02-20 12:43:45,0.10,1.36,0.00,18.21,21.17,24.54,14.03,51.59,1001.07,2051.00,2938.34,2767.86,3112.57,599.83,596.40,16.61,0000 0000 0000 0000 000000
2018-02-20 12:48:46,0.10,1.36,0.00,18.20,21.13,24.51,14.02,51.57,1001.13,2051.01,2936.58,2766.59,3110.91,599.76,596.47,16.66,0000 0000 0000 0000 000000
2018-02-20 12:53:48,0.10,1.37,0.00,18.18,21.10,24.49,14.09,51.67,1001.14,2051.05,2934.77,2765.37,3109.38,600.38,597.07,16.71,0000 0000 0000 0000 000000